Harlingen, TX

8:07 AM CDT on August 20, 2017 (GMT -0500)
Valley International

Weather History for KHRL - March, 2013

Change the Weather History Date:

Tuesday, March 12, 2013

  Actual Average Record
Temperature  
Mean Temperature 61 °F 68 °F  
Max Temperature 79 °F 79 °F 98 °F (1928)
Min Temperature 43 °F 57 °F 32 °F (1914)
Degree Days  
Heating Degree Days 4 2  
Month to date heating degree days 34 28  
Since 1 July heating degree days 382 596  
Cooling Degree Days 0 5  
Month to date cooling degree days 38 52  
Year to date cooling degree days 232 177  
Growing Degree Days 12 (Base 50)    
Moisture  
Dew Point 41 °F    
Average Humidity 52    
Maximum Humidity 83    
Minimum Humidity 21    
Precipitation  
Precipitation 0.00 in 0.03 in 1.62 in (2007)
Month to date precipitation 0.01 0.44  
Year to date precipitation 2.75 2.91  
Sea Level Pressure  
Sea Level Pressure 30.13 in    
Wind  
Wind Speed 7 mph (SE)    
Max Wind Speed 21 mph    
Max Gust Speed 28 mph    
Visibility 10 miles    
Events      
T = Trace of Precipitation, MM = Missing Value Source: NWS Daily Summary

Daily Weather History Graph

Daily Weather History Graph

Search for Another Location

Airport or City:

Trip Planner

Search our weather history database for the weather conditions in past years. The results will help you decide how hot, cold, wet, or windy it might be!

Date:

Astronomy

Mar. 12, 2013 Rise Set
Actual Time 7:42 AM CDT 7:38 PM CDT
Civil Twilight 7:19 AM CDT 8:01 PM CDT
Nautical Twilight 6:52 AM CDT 8:27 PM CDT
Astronomical Twilight 6:26 AM CDT 8:54 PM CDT
Moon 7:59 AM CDT (3/12) 8:42 PM CDT (3/12)
Length of Visible Light 12h 41m
Length of Day
11h 55m
New Moon, 1% of the Moon is Illuminated
Mar 12
New Moon
Mar 19
First Quarter
Mar 27
Full
Apr 2
Last Quarter
Apr 10
New

Hourly Weather History & Observations

Time (CDT) Temp. Windchill Dew Point Humidity Pressure Visibility Wind Dir Wind Speed Gust Speed Precip Events Conditions
12:52 AM 48.0 °F - 39.9 °F 74% 30.11 in 10.0 mi SSW 8.1 mph - N/A   Clear
1:52 AM 48.9 °F - 39.9 °F 71% 30.11 in 10.0 mi SSW 5.8 mph - N/A   Clear
2:52 AM 48.0 °F - 39.9 °F 74% 30.10 in 10.0 mi SSW 5.8 mph - N/A   Clear
3:52 AM 50.0 °F - 39.2 °F 66% 30.09 in 10.0 mi SSW 8.1 mph - N/A   Clear
4:52 AM 48.9 °F - 39.9 °F 71% 30.09 in 10.0 mi SSW 6.9 mph - N/A   Clear
5:52 AM 48.9 °F - 42.1 °F 77% 30.09 in 10.0 mi SSW 5.8 mph - N/A   Clear
6:52 AM 46.9 °F - 41.0 °F 80% 30.11 in 10.0 mi SSW 4.6 mph - N/A   Clear
7:52 AM 44.1 °F 42.5 °F 39.9 °F 85% 30.13 in 10.0 mi SSE 3.5 mph - N/A   Clear
8:52 AM 48.0 °F - 43.0 °F 83% 30.15 in 10.0 mi East 4.6 mph - N/A   Clear
9:52 AM 63.0 °F - 46.0 °F 54% 30.16 in 10.0 mi SE 4.6 mph - N/A   Clear
10:52 AM 71.1 °F - 37.0 °F 29% 30.17 in 10.0 mi South 6.9 mph - N/A   Clear
11:52 AM 73.0 °F - 33.1 °F 23% 30.17 in 10.0 mi Variable 4.6 mph - N/A   Clear
12:52 PM 75.9 °F - 32.0 °F 20% 30.15 in 10.0 mi SSW 5.8 mph - N/A   Clear
1:52 PM 75.9 °F - 33.1 °F 21% 30.13 in 10.0 mi Variable 5.8 mph - N/A   Clear
2:52 PM 79.0 °F - 36.0 °F 21% 30.10 in 10.0 mi East 4.6 mph - N/A   Clear
3:24 PM 78.8 °F - 42.8 °F 28% 30.09 in 10.0 mi East 10.4 mph 27.6 mph N/A   Clear
3:52 PM 78.1 °F - 42.1 °F 28% 30.08 in 10.0 mi ESE 15.0 mph 21.9 mph N/A   Clear
4:52 PM 77.0 °F - 41.0 °F 28% 30.07 in 10.0 mi East 13.8 mph - N/A   Clear
5:52 PM 75.0 °F - 39.9 °F 28% 30.09 in 10.0 mi ESE 11.5 mph - N/A   Clear
6:52 PM 70.0 °F - 44.1 °F 39% 30.11 in 10.0 mi ESE 17.3 mph - N/A   Clear
7:52 PM 64.9 °F - 46.0 °F 50% 30.14 in 10.0 mi ESE 10.4 mph - N/A   Clear
8:52 PM 61.0 °F - 46.9 °F 60% 30.16 in 10.0 mi ESE 8.1 mph - N/A   Clear
9:52 PM 57.0 °F - 45.0 °F 64% 30.19 in 10.0 mi ESE 5.8 mph - N/A   Clear
10:52 PM 54.0 °F - 44.1 °F 69% 30.21 in 10.0 mi East 6.9 mph - N/A   Clear
11:52 PM 53.1 °F - 45.0 °F 74% 30.22 in 10.0 mi East 4.6 mph - N/A   Clear